Year,Month,Day,Hour,Minute,Value (Times are PST for temperature in C)
2021,06,07,00,00,8.80
2021,06,07,00,01,8.70
2021,06,07,00,02,8.60
2021,06,07,00,03,8.60
2021,06,07,00,04,8.60
2021,06,07,00,05,8.60
2021,06,07,00,06,8.50
2021,06,07,00,07,8.50
2021,06,07,00,08,8.40
2021,06,07,00,09,8.40
2021,06,07,00,10,8.40
2021,06,07,00,11,8.30
2021,06,07,00,12,8.30
2021,06,07,00,13,8.30
2021,06,07,00,14,8.30
2021,06,07,00,15,8.30
2021,06,07,00,16,8.20
2021,06,07,00,17,8.20
2021,06,07,00,18,8.20
2021,06,07,00,19,8.10
2021,06,07,00,20,8.10
2021,06,07,00,21,8.10
2021,06,07,00,22,8.00
2021,06,07,00,23,8.00
2021,06,07,00,24,8.00
2021,06,07,00,25,8.00
2021,06,07,00,26,7.90
2021,06,07,00,27,7.90
2021,06,07,00,28,7.90
2021,06,07,00,29,7.90
2021,06,07,00,30,7.90
2021,06,07,00,31,7.90
2021,06,07,00,32,7.90
2021,06,07,00,33,7.90
2021,06,07,00,34,7.90
2021,06,07,00,35,7.90
2021,06,07,00,36,7.90
2021,06,07,00,37,7.80
2021,06,07,00,38,7.80
2021,06,07,00,39,7.80
2021,06,07,00,40,7.80
2021,06,07,00,41,7.80
2021,06,07,00,42,7.80
2021,06,07,00,43,7.80
2021,06,07,00,44,7.80
2021,06,07,00,45,7.80
2021,06,07,00,46,7.80
2021,06,07,00,47,7.80
2021,06,07,00,48,7.80
2021,06,07,00,49,7.70
2021,06,07,00,50,7.70
2021,06,07,00,51,7.70
2021,06,07,00,52,7.70
2021,06,07,00,53,7.80
2021,06,07,00,54,7.80
2021,06,07,00,55,7.80
2021,06,07,00,56,7.80
2021,06,07,00,57,7.80
2021,06,07,00,58,7.80
2021,06,07,00,59,7.80
2021,06,07,01,00,7.80
2021,06,07,01,01,7.80
2021,06,07,01,02,7.80
2021,06,07,01,03,7.80
2021,06,07,01,04,7.80
2021,06,07,01,05,7.80
2021,06,07,01,06,7.80
2021,06,07,01,07,7.80
2021,06,07,01,08,7.80
2021,06,07,01,09,7.80
2021,06,07,01,10,7.80
2021,06,07,01,11,7.80
2021,06,07,01,12,7.90
2021,06,07,01,13,7.90
2021,06,07,01,14,7.90
2021,06,07,01,15,7.90
2021,06,07,01,16,7.90
2021,06,07,01,17,7.90
2021,06,07,01,18,7.90
2021,06,07,01,19,7.80
2021,06,07,01,20,7.90
2021,06,07,01,21,7.80
2021,06,07,01,22,7.90
2021,06,07,01,23,7.80
2021,06,07,01,24,7.80
2021,06,07,01,25,7.80
2021,06,07,01,26,7.80
2021,06,07,01,27,7.80
2021,06,07,01,28,7.80
2021,06,07,01,29,7.80
2021,06,07,01,30,7.80
2021,06,07,01,31,7.80
2021,06,07,01,32,7.80
2021,06,07,01,33,7.80
2021,06,07,01,34,7.80
2021,06,07,01,35,7.80
2021,06,07,01,36,7.70
2021,06,07,01,37,7.70
2021,06,07,01,38,7.70
2021,06,07,01,39,7.70
2021,06,07,01,40,7.70
2021,06,07,01,41,7.70
2021,06,07,01,42,7.70
2021,06,07,01,43,7.70
2021,06,07,01,44,7.70
2021,06,07,01,45,7.70
2021,06,07,01,46,7.70
2021,06,07,01,47,7.70
2021,06,07,01,48,7.60
2021,06,07,01,49,7.60
2021,06,07,01,50,7.60
2021,06,07,01,51,7.60
2021,06,07,01,52,7.60
2021,06,07,01,53,7.60
2021,06,07,01,54,7.60
2021,06,07,01,55,7.60
2021,06,07,01,56,7.60
2021,06,07,01,57,7.60
2021,06,07,01,58,7.60
2021,06,07,01,59,7.60
2021,06,07,02,00,7.60
2021,06,07,02,01,7.60
2021,06,07,02,02,7.50
2021,06,07,02,03,7.50
2021,06,07,02,04,7.50
2021,06,07,02,05,7.50
2021,06,07,02,06,7.50
2021,06,07,02,07,7.50
2021,06,07,02,08,7.50
2021,06,07,02,09,7.50
2021,06,07,02,10,7.40
2021,06,07,02,11,7.40
2021,06,07,02,12,7.40
2021,06,07,02,13,7.40
2021,06,07,02,14,7.40
2021,06,07,02,15,7.40
2021,06,07,02,16,7.30
2021,06,07,02,17,7.30
2021,06,07,02,18,7.30
2021,06,07,02,19,7.30
2021,06,07,02,20,7.30
2021,06,07,02,21,7.30
2021,06,07,02,22,7.30
2021,06,07,02,23,7.20
2021,06,07,02,24,7.20
2021,06,07,02,25,7.20
2021,06,07,02,26,7.20
2021,06,07,02,27,7.20
2021,06,07,02,28,7.10
2021,06,07,02,29,7.10
2021,06,07,02,30,7.10
2021,06,07,02,31,7.10
2021,06,07,02,32,7.10
2021,06,07,02,33,7.10
2021,06,07,02,34,7.10
2021,06,07,02,35,7.00
2021,06,07,02,36,7.00
2021,06,07,02,37,7.00
2021,06,07,02,38,7.00
2021,06,07,02,39,7.00
2021,06,07,02,40,7.00
2021,06,07,02,41,6.90
2021,06,07,02,42,6.90
2021,06,07,02,43,6.90
2021,06,07,02,44,6.80
2021,06,07,02,45,6.80
2021,06,07,02,46,6.80
2021,06,07,02,47,6.80
2021,06,07,02,48,6.80
2021,06,07,02,49,6.70
2021,06,07,02,50,6.70
2021,06,07,02,51,6.70
2021,06,07,02,52,6.70
2021,06,07,02,53,6.70
2021,06,07,02,54,6.70
2021,06,07,02,55,6.70
2021,06,07,02,56,6.60
2021,06,07,02,57,6.60
2021,06,07,02,58,6.60
2021,06,07,02,59,6.60
2021,06,07,03,00,6.50
2021,06,07,03,01,6.50
2021,06,07,03,02,6.50
2021,06,07,03,03,6.40
2021,06,07,03,04,6.40
2021,06,07,03,05,6.40
2021,06,07,03,06,6.40
2021,06,07,03,07,6.40
2021,06,07,03,08,6.40
2021,06,07,03,09,6.30
2021,06,07,03,10,6.30
2021,06,07,03,11,6.30
2021,06,07,03,12,6.30
2021,06,07,03,13,6.30
2021,06,07,03,14,6.30
2021,06,07,03,15,6.20
2021,06,07,03,16,6.20
2021,06,07,03,17,6.20
2021,06,07,03,18,6.20
2021,06,07,03,19,6.20
2021,06,07,03,20,6.20
2021,06,07,03,21,6.20
2021,06,07,03,22,6.20
2021,06,07,03,23,6.10
2021,06,07,03,24,6.10
2021,06,07,03,25,6.10
2021,06,07,03,26,6.10
2021,06,07,03,27,6.20
2021,06,07,03,28,6.20
2021,06,07,03,29,6.20
2021,06,07,03,30,6.20
2021,06,07,03,31,6.20
2021,06,07,03,32,6.20
2021,06,07,03,33,6.20
2021,06,07,03,34,6.20
2021,06,07,03,35,6.20
2021,06,07,03,36,6.20
2021,06,07,03,37,6.20
2021,06,07,03,38,6.20
2021,06,07,03,39,6.20
2021,06,07,03,40,6.20
2021,06,07,03,41,6.20
2021,06,07,03,42,6.20
2021,06,07,03,43,6.20
2021,06,07,03,44,6.20
2021,06,07,03,45,6.20
2021,06,07,03,46,6.20
2021,06,07,03,47,6.20
2021,06,07,03,48,6.20
2021,06,07,03,49,6.20
2021,06,07,03,50,6.20
2021,06,07,03,51,6.20
2021,06,07,03,52,6.20
2021,06,07,03,53,6.30
2021,06,07,03,54,6.30
2021,06,07,03,55,6.30
2021,06,07,03,56,6.30
2021,06,07,03,57,6.30
2021,06,07,03,58,6.30
2021,06,07,03,59,6.30
2021,06,07,04,00,6.30
2021,06,07,04,01,6.30
2021,06,07,04,02,6.30
2021,06,07,04,03,6.30
2021,06,07,04,04,6.20
2021,06,07,04,05,6.20
2021,06,07,04,06,6.20
2021,06,07,04,07,6.20
2021,06,07,04,08,6.20
2021,06,07,04,09,6.20
2021,06,07,04,10,6.20
2021,06,07,04,11,6.20
2021,06,07,04,12,6.20
2021,06,07,04,13,6.20
2021,06,07,04,14,6.20
2021,06,07,04,15,6.20
2021,06,07,04,16,6.20
2021,06,07,04,17,6.20
2021,06,07,04,18,6.20
2021,06,07,04,19,6.20
2021,06,07,04,20,6.20
2021,06,07,04,21,6.20
2021,06,07,04,22,6.20
2021,06,07,04,23,6.10
2021,06,07,04,24,6.10
2021,06,07,04,25,6.10
2021,06,07,04,26,6.10
2021,06,07,04,27,6.10
2021,06,07,04,28,6.10
2021,06,07,04,29,6.10
2021,06,07,04,30,6.10
2021,06,07,04,31,6.10
2021,06,07,04,32,6.10
2021,06,07,04,33,6.10
2021,06,07,04,34,6.10
2021,06,07,04,35,6.10
2021,06,07,04,36,6.10
2021,06,07,04,37,6.10
2021,06,07,04,38,6.00
2021,06,07,04,39,6.00
2021,06,07,04,40,6.00
2021,06,07,04,41,6.00
2021,06,07,04,42,6.00
2021,06,07,04,43,6.00
2021,06,07,04,44,6.00
2021,06,07,04,45,5.90
2021,06,07,04,46,5.90
2021,06,07,04,47,5.90
2021,06,07,04,48,5.90
2021,06,07,04,49,5.90
2021,06,07,04,50,5.90
2021,06,07,04,51,5.90
2021,06,07,04,52,5.80
2021,06,07,04,53,5.80
2021,06,07,04,54,5.80
2021,06,07,04,55,5.80
2021,06,07,04,56,5.80
2021,06,07,04,57,5.80
2021,06,07,04,58,5.80
2021,06,07,04,59,5.70
2021,06,07,05,00,5.70
2021,06,07,05,01,5.70
2021,06,07,05,02,5.70
2021,06,07,05,03,5.70
2021,06,07,05,04,5.70
2021,06,07,05,05,5.70
2021,06,07,05,06,5.60
2021,06,07,05,07,5.60
2021,06,07,05,08,5.60
2021,06,07,05,09,5.60
2021,06,07,05,10,5.60
2021,06,07,05,11,5.60
2021,06,07,05,12,5.60
2021,06,07,05,13,5.60
2021,06,07,05,14,5.50
2021,06,07,05,15,5.50
2021,06,07,05,16,5.50
2021,06,07,05,17,5.50
2021,06,07,05,18,5.50
2021,06,07,05,19,5.50
2021,06,07,05,20,5.50
2021,06,07,05,21,5.40
2021,06,07,05,22,5.40
2021,06,07,05,23,5.40
2021,06,07,05,24,5.40
2021,06,07,05,25,5.40
2021,06,07,05,26,5.40
2021,06,07,05,27,5.40
2021,06,07,05,28,5.40
2021,06,07,05,29,5.30
2021,06,07,05,30,5.30
2021,06,07,05,31,5.30
2021,06,07,05,32,5.30
2021,06,07,05,33,5.30
2021,06,07,05,34,5.30
2021,06,07,05,35,5.30
2021,06,07,05,36,5.30
2021,06,07,05,37,5.20
2021,06,07,05,38,5.20
2021,06,07,05,39,5.20
2021,06,07,05,40,5.20
2021,06,07,05,41,5.20
2021,06,07,05,42,5.20
2021,06,07,05,43,5.20
2021,06,07,05,44,5.10
2021,06,07,05,45,5.10
2021,06,07,05,46,5.10
2021,06,07,05,47,5.10
2021,06,07,05,48,5.10
2021,06,07,05,49,5.00
2021,06,07,05,50,5.10
2021,06,07,05,51,5.00
2021,06,07,05,52,5.00
2021,06,07,05,53,5.00
2021,06,07,05,54,5.00
2021,06,07,05,55,5.00
2021,06,07,05,56,5.00
2021,06,07,05,57,5.00
2021,06,07,05,58,5.00
2021,06,07,05,59,5.00
2021,06,07,06,00,5.00
2021,06,07,06,01,5.00
2021,06,07,06,02,5.00
2021,06,07,06,03,5.00
2021,06,07,06,04,5.00
2021,06,07,06,05,5.00
2021,06,07,06,06,5.00
2021,06,07,06,07,5.10
2021,06,07,06,08,5.00
2021,06,07,06,09,5.00
2021,06,07,06,10,5.00
2021,06,07,06,11,5.00
2021,06,07,06,12,5.00
2021,06,07,06,13,5.00
2021,06,07,06,14,5.00
2021,06,07,06,15,5.00
2021,06,07,06,16,5.00
2021,06,07,06,17,5.00
2021,06,07,06,18,5.00
2021,06,07,06,19,5.00
2021,06,07,06,20,5.00
2021,06,07,06,21,5.00
2021,06,07,06,22,5.10
2021,06,07,06,23,5.10
2021,06,07,06,24,5.10
2021,06,07,06,25,5.10
2021,06,07,06,26,5.20
2021,06,07,06,27,5.20
2021,06,07,06,28,5.20
2021,06,07,06,29,5.20
2021,06,07,06,30,5.20
2021,06,07,06,31,5.20
2021,06,07,06,32,5.30
2021,06,07,06,33,5.30
2021,06,07,06,34,5.30
2021,06,07,06,35,5.30
2021,06,07,06,36,5.40
2021,06,07,06,37,5.40
2021,06,07,06,38,5.50
2021,06,07,06,39,5.60
2021,06,07,06,40,5.60
2021,06,07,06,41,5.70
2021,06,07,06,42,5.70
2021,06,07,06,43,5.80
2021,06,07,06,44,5.90
2021,06,07,06,45,5.90
2021,06,07,06,46,6.00
2021,06,07,06,47,6.10
2021,06,07,06,48,6.10
2021,06,07,06,49,6.10
2021,06,07,06,50,6.20
2021,06,07,06,51,6.20
2021,06,07,06,52,6.30
2021,06,07,06,53,6.30
2021,06,07,06,54,6.30
2021,06,07,06,55,6.40
2021,06,07,06,56,6.40
2021,06,07,06,57,6.40
2021,06,07,06,58,6.40
2021,06,07,06,59,6.50
2021,06,07,07,00,6.50
2021,06,07,07,01,6.60
2021,06,07,07,02,6.60
2021,06,07,07,03,6.60
2021,06,07,07,04,6.70
2021,06,07,07,05,6.70
2021,06,07,07,06,6.70
2021,06,07,07,07,6.70
2021,06,07,07,08,6.80
2021,06,07,07,09,6.80
2021,06,07,07,10,6.80
2021,06,07,07,11,6.80
2021,06,07,07,12,6.80
2021,06,07,07,13,6.80
2021,06,07,07,14,6.90
2021,06,07,07,15,6.90
2021,06,07,07,16,6.90
2021,06,07,07,17,6.90
2021,06,07,07,18,6.90
2021,06,07,07,19,6.90
2021,06,07,07,20,6.90
2021,06,07,07,21,7.00
2021,06,07,07,22,7.00
2021,06,07,07,23,7.00
2021,06,07,07,24,7.00
2021,06,07,07,25,7.00
2021,06,07,07,26,7.00
2021,06,07,07,27,7.10
2021,06,07,07,28,7.00
2021,06,07,07,29,7.10
2021,06,07,07,30,7.10
2021,06,07,07,31,7.10
2021,06,07,07,32,7.10
2021,06,07,07,33,7.10
2021,06,07,07,34,7.10
2021,06,07,07,35,7.20
2021,06,07,07,36,7.20
2021,06,07,07,37,7.20
2021,06,07,07,38,7.20
2021,06,07,07,39,7.20
2021,06,07,07,40,7.20
2021,06,07,07,41,7.20
2021,06,07,07,42,7.20
2021,06,07,07,43,7.20
2021,06,07,07,44,7.20
2021,06,07,07,45,7.20
2021,06,07,07,46,7.20
2021,06,07,07,47,7.30
2021,06,07,07,48,7.20
2021,06,07,07,49,7.20
2021,06,07,07,50,7.30
2021,06,07,07,51,7.20
2021,06,07,07,52,7.30
2021,06,07,07,53,7.30
2021,06,07,07,54,7.30
2021,06,07,07,55,7.20
2021,06,07,07,56,7.30
2021,06,07,07,57,7.30
2021,06,07,07,58,7.30
2021,06,07,07,59,7.30
2021,06,07,08,00,7.30
2021,06,07,08,01,7.30
2021,06,07,08,02,7.30
2021,06,07,08,03,7.30
2021,06,07,08,04,7.40
2021,06,07,08,05,7.40
2021,06,07,08,06,7.50
2021,06,07,08,07,7.50
2021,06,07,08,08,7.60
2021,06,07,08,09,7.60
2021,06,07,08,10,7.60
2021,06,07,08,11,7.70
2021,06,07,08,12,7.70
2021,06,07,08,13,7.70
2021,06,07,08,14,7.80
2021,06,07,08,15,7.80
2021,06,07,08,16,7.90
2021,06,07,08,17,7.90
2021,06,07,08,18,8.00
2021,06,07,08,19,8.10
2021,06,07,08,20,8.10
2021,06,07,08,21,8.20
2021,06,07,08,22,8.30
2021,06,07,08,23,8.30
2021,06,07,08,24,8.40
2021,06,07,08,25,8.40
2021,06,07,08,26,8.50
2021,06,07,08,27,8.60
2021,06,07,08,28,8.60
2021,06,07,08,29,8.70
2021,06,07,08,30,8.80
2021,06,07,08,31,8.90
2021,06,07,08,32,8.90
2021,06,07,08,33,9.00
2021,06,07,08,34,9.00
2021,06,07,08,35,9.00
2021,06,07,08,36,9.10
2021,06,07,08,37,9.20
2021,06,07,08,38,9.20
2021,06,07,08,39,9.30
2021,06,07,08,40,9.40
2021,06,07,08,41,9.40
2021,06,07,08,42,9.50
2021,06,07,08,43,9.60
2021,06,07,08,44,9.60
2021,06,07,08,45,9.70
2021,06,07,08,46,9.70
2021,06,07,08,47,9.80
2021,06,07,08,48,9.90
2021,06,07,08,49,9.90
2021,06,07,08,50,10.00
2021,06,07,08,51,10.00
2021,06,07,08,52,10.10
2021,06,07,08,53,10.10
2021,06,07,08,54,10.20
2021,06,07,08,55,10.30
2021,06,07,08,56,10.30
2021,06,07,08,57,10.30
2021,06,07,08,58,10.30
2021,06,07,08,59,10.40
2021,06,07,09,00,10.40
2021,06,07,09,01,10.40
2021,06,07,09,02,10.40
2021,06,07,09,03,10.50
2021,06,07,09,04,10.50
2021,06,07,09,05,10.60
2021,06,07,09,06,10.70
2021,06,07,09,07,10.80
2021,06,07,09,08,10.90
2021,06,07,09,09,11.00
2021,06,07,09,10,11.10
2021,06,07,09,11,11.20
2021,06,07,09,12,11.20
2021,06,07,09,13,11.30
2021,06,07,09,14,11.40
2021,06,07,09,15,11.40
2021,06,07,09,16,11.50
2021,06,07,09,17,11.50
2021,06,07,09,18,11.60
2021,06,07,09,19,11.60
2021,06,07,09,20,11.70
2021,06,07,09,21,11.80
2021,06,07,09,22,11.90
2021,06,07,09,23,11.90
2021,06,07,09,24,12.00
2021,06,07,09,25,12.00
2021,06,07,09,26,12.00
2021,06,07,09,27,12.00
2021,06,07,09,28,12.10
2021,06,07,09,29,12.20
2021,06,07,09,30,12.20
2021,06,07,09,31,12.30
2021,06,07,09,32,12.40
2021,06,07,09,33,12.50
2021,06,07,09,34,12.50
2021,06,07,09,35,12.60
2021,06,07,09,36,12.70
2021,06,07,09,37,12.70
2021,06,07,09,38,12.80
2021,06,07,09,39,12.90
2021,06,07,09,40,12.90
2021,06,07,09,41,13.00
2021,06,07,09,42,13.00
2021,06,07,09,43,13.10
2021,06,07,09,44,13.20
2021,06,07,09,45,13.20
2021,06,07,09,46,13.30
2021,06,07,09,47,13.40
2021,06,07,09,48,13.40
2021,06,07,09,49,13.50
2021,06,07,09,50,13.60
2021,06,07,09,51,13.60
2021,06,07,09,52,13.70
2021,06,07,09,53,13.70
2021,06,07,09,54,13.80
2021,06,07,09,55,13.80
2021,06,07,09,56,13.80
2021,06,07,09,57,13.70
2021,06,07,09,58,13.70
2021,06,07,09,59,13.70
2021,06,07,10,00,13.70
2021,06,07,10,01,13.70
2021,06,07,10,02,13.70
2021,06,07,10,03,13.70
2021,06,07,10,04,13.70
2021,06,07,10,05,13.80
2021,06,07,10,06,13.80
2021,06,07,10,07,13.90
2021,06,07,10,08,13.80
2021,06,07,10,09,13.80
2021,06,07,10,10,13.70
2021,06,07,10,11,13.70
2021,06,07,10,12,13.60
2021,06,07,10,13,13.60
2021,06,07,10,14,13.60
2021,06,07,10,15,13.60
2021,06,07,10,16,13.60
2021,06,07,10,17,13.60
2021,06,07,10,18,13.70
2021,06,07,10,19,13.70
2021,06,07,10,20,13.70
2021,06,07,10,21,13.70
2021,06,07,10,22,13.70
2021,06,07,10,23,13.70
2021,06,07,10,24,13.70
2021,06,07,10,25,13.60
2021,06,07,10,26,13.60
2021,06,07,10,27,13.60
2021,06,07,10,28,13.60
2021,06,07,10,29,13.60
2021,06,07,10,30,13.60
2021,06,07,10,31,13.60
2021,06,07,10,32,13.60
2021,06,07,10,33,13.50
2021,06,07,10,34,13.50
2021,06,07,10,35,13.40
2021,06,07,10,36,13.40
2021,06,07,10,37,13.50
2021,06,07,10,38,13.50
2021,06,07,10,39,13.40
2021,06,07,10,40,13.40
2021,06,07,10,41,13.50
2021,06,07,10,42,13.50
2021,06,07,10,43,13.50
2021,06,07,10,44,13.50
2021,06,07,10,45,13.60
2021,06,07,10,46,13.70
2021,06,07,10,47,13.70
2021,06,07,10,48,13.80
2021,06,07,10,49,13.80
2021,06,07,10,50,13.90
2021,06,07,10,51,13.90
2021,06,07,10,52,13.90
2021,06,07,10,53,14.00
2021,06,07,10,54,14.00
2021,06,07,10,55,13.90
2021,06,07,10,56,13.90
2021,06,07,10,57,13.80
2021,06,07,10,58,13.80
2021,06,07,10,59,13.80
2021,06,07,11,00,13.80
2021,06,07,11,01,13.80
2021,06,07,11,02,13.80
2021,06,07,11,03,13.80
2021,06,07,11,04,13.90
2021,06,07,11,05,13.90
2021,06,07,11,06,13.90
2021,06,07,11,07,13.90
2021,06,07,11,08,13.90
2021,06,07,11,09,13.90
2021,06,07,11,10,14.00
2021,06,07,11,11,14.00
2021,06,07,11,12,14.10
2021,06,07,11,13,14.10
2021,06,07,11,14,14.20
2021,06,07,11,15,14.20
2021,06,07,11,16,14.20
2021,06,07,11,17,14.20
2021,06,07,11,18,14.30
2021,06,07,11,19,14.30
2021,06,07,11,20,14.30
2021,06,07,11,21,14.30
2021,06,07,11,22,14.30
2021,06,07,11,23,14.40
2021,06,07,11,24,14.40
2021,06,07,11,25,14.40
2021,06,07,11,26,14.50
2021,06,07,11,27,14.60
2021,06,07,11,28,14.60
2021,06,07,11,29,14.70
2021,06,07,11,30,14.70
2021,06,07,11,31,14.70
2021,06,07,11,32,14.80
2021,06,07,11,33,14.80
2021,06,07,11,34,14.80
2021,06,07,11,35,14.80
2021,06,07,11,36,14.80
2021,06,07,11,37,14.80
2021,06,07,11,38,14.90
2021,06,07,11,39,14.90
2021,06,07,11,40,15.00
2021,06,07,11,41,15.00
2021,06,07,11,42,15.10
2021,06,07,11,43,15.10
2021,06,07,11,44,15.20
2021,06,07,11,45,15.20
2021,06,07,11,46,15.20
2021,06,07,11,47,15.20
2021,06,07,11,48,15.20
2021,06,07,11,49,15.30
2021,06,07,11,50,15.30
2021,06,07,11,51,15.40
2021,06,07,11,52,15.50
2021,06,07,11,53,15.60
2021,06,07,11,54,15.60
2021,06,07,11,55,15.70
2021,06,07,11,56,15.80
2021,06,07,11,57,15.80
2021,06,07,11,58,15.80
2021,06,07,11,59,15.90
2021,06,07,12,00,15.90
2021,06,07,12,01,15.90
2021,06,07,12,02,15.90
2021,06,07,12,03,15.90
2021,06,07,12,04,16.00
2021,06,07,12,05,16.00
2021,06,07,12,06,16.00
2021,06,07,12,07,16.00
2021,06,07,12,08,15.90
2021,06,07,12,09,15.90
2021,06,07,12,10,15.90
2021,06,07,12,11,15.80
2021,06,07,12,12,15.80
2021,06,07,12,13,15.80
2021,06,07,12,14,15.80
2021,06,07,12,15,15.80
2021,06,07,12,16,15.80
2021,06,07,12,17,15.90
2021,06,07,12,18,16.00
2021,06,07,12,19,16.00
2021,06,07,12,20,16.10
2021,06,07,12,21,16.20
2021,06,07,12,22,16.20
2021,06,07,12,23,16.20
2021,06,07,12,24,16.20
2021,06,07,12,25,16.20
2021,06,07,12,26,16.20
2021,06,07,12,27,16.30
2021,06,07,12,28,16.30
2021,06,07,12,29,16.30
2021,06,07,12,30,16.40
2021,06,07,12,31,16.40
2021,06,07,12,32,16.30
2021,06,07,12,33,16.30
2021,06,07,12,34,16.30
2021,06,07,12,35,16.20
2021,06,07,12,36,16.20
2021,06,07,12,37,16.20
2021,06,07,12,38,16.20
2021,06,07,12,39,16.30
2021,06,07,12,40,16.20
2021,06,07,12,41,16.20
2021,06,07,12,42,16.10
2021,06,07,12,43,16.00
2021,06,07,12,44,15.90
2021,06,07,12,45,15.80
2021,06,07,12,46,15.80
2021,06,07,12,47,15.80
2021,06,07,12,48,15.80
2021,06,07,12,49,15.80
2021,06,07,12,50,15.80
2021,06,07,12,51,15.80
2021,06,07,12,52,15.80
2021,06,07,12,53,15.80
2021,06,07,12,54,15.70
2021,06,07,12,55,15.70
2021,06,07,12,56,15.70
2021,06,07,12,57,15.70
2021,06,07,12,58,15.60
2021,06,07,12,59,15.60
2021,06,07,13,00,15.60
2021,06,07,13,01,15.70
2021,06,07,13,02,15.70
2021,06,07,13,03,15.70
2021,06,07,13,04,15.70
2021,06,07,13,05,15.70
2021,06,07,13,06,15.60
2021,06,07,13,07,15.60
2021,06,07,13,08,15.70
2021,06,07,13,09,15.70
2021,06,07,13,10,15.80
2021,06,07,13,11,15.90
2021,06,07,13,12,16.00
2021,06,07,13,13,16.10
2021,06,07,13,14,16.20
2021,06,07,13,15,16.30
2021,06,07,13,16,16.40
2021,06,07,13,17,16.40
2021,06,07,13,18,16.40
2021,06,07,13,19,16.50
2021,06,07,13,20,16.50
2021,06,07,13,21,16.50
2021,06,07,13,22,16.50
2021,06,07,13,23,16.50
2021,06,07,13,24,16.50
2021,06,07,13,25,16.50
2021,06,07,13,26,16.50
2021,06,07,13,27,16.40
2021,06,07,13,28,16.40
2021,06,07,13,29,16.30
2021,06,07,13,30,16.30
2021,06,07,13,31,16.30
2021,06,07,13,32,16.20
2021,06,07,13,33,16.20
2021,06,07,13,34,16.20
2021,06,07,13,35,16.20
2021,06,07,13,36,16.10
2021,06,07,13,37,16.10
2021,06,07,13,38,16.10
2021,06,07,13,39,16.10
2021,06,07,13,40,16.10
2021,06,07,13,41,16.20
2021,06,07,13,42,16.20
2021,06,07,13,43,16.20
2021,06,07,13,44,16.20
2021,06,07,13,45,16.10
2021,06,07,13,46,16.00
2021,06,07,13,47,16.00
2021,06,07,13,48,15.90
2021,06,07,13,49,15.90
2021,06,07,13,50,15.90
2021,06,07,13,51,15.90
2021,06,07,13,52,15.90
2021,06,07,13,53,16.00
2021,06,07,13,54,15.90
2021,06,07,13,55,16.00
2021,06,07,13,56,16.00
2021,06,07,13,57,16.00
2021,06,07,13,58,16.00
2021,06,07,13,59,16.00
2021,06,07,14,00,15.90
2021,06,07,14,01,15.90
2021,06,07,14,02,15.90
2021,06,07,14,03,15.90
2021,06,07,14,04,15.90
2021,06,07,14,05,15.90
2021,06,07,14,06,15.90
2021,06,07,14,07,15.90
2021,06,07,14,08,15.90
2021,06,07,14,09,15.80
2021,06,07,14,10,15.80
2021,06,07,14,11,15.80
2021,06,07,14,12,15.80
2021,06,07,14,13,15.70
2021,06,07,14,14,15.70
2021,06,07,14,15,15.70
2021,06,07,14,16,15.70
2021,06,07,14,17,15.70
2021,06,07,14,18,15.70
2021,06,07,14,19,15.70
2021,06,07,14,20,15.70
2021,06,07,14,21,15.80
2021,06,07,14,22,15.80
2021,06,07,14,23,15.80
2021,06,07,14,24,15.90
2021,06,07,14,25,15.90
2021,06,07,14,26,16.00
2021,06,07,14,27,16.00
2021,06,07,14,28,16.10
2021,06,07,14,29,16.10
2021,06,07,14,30,16.20
2021,06,07,14,31,16.20
2021,06,07,14,32,16.20
2021,06,07,14,33,16.30
2021,06,07,14,34,16.30
2021,06,07,14,35,16.30
2021,06,07,14,36,16.30
2021,06,07,14,37,16.30
2021,06,07,14,38,16.40
2021,06,07,14,39,16.40
2021,06,07,14,40,16.40
2021,06,07,14,41,16.50
2021,06,07,14,42,16.50
2021,06,07,14,43,16.60
2021,06,07,14,44,16.60
2021,06,07,14,45,16.70
2021,06,07,14,46,16.70
2021,06,07,14,47,16.70
2021,06,07,14,48,16.70
2021,06,07,14,49,16.70
2021,06,07,14,50,16.70
2021,06,07,14,51,16.70
2021,06,07,14,52,16.70
2021,06,07,14,53,16.70
2021,06,07,14,54,16.70
2021,06,07,14,55,16.70
2021,06,07,14,56,16.80
2021,06,07,14,57,16.80
2021,06,07,14,58,16.70
2021,06,07,14,59,16.70
2021,06,07,15,00,16.70
2021,06,07,15,01,16.70
2021,06,07,15,02,16.60
2021,06,07,15,03,16.60
2021,06,07,15,04,16.60
2021,06,07,15,05,16.70
2021,06,07,15,06,16.70
2021,06,07,15,07,16.70
2021,06,07,15,08,16.70
2021,06,07,15,09,16.60
2021,06,07,15,10,16.60
2021,06,07,15,11,16.60
2021,06,07,15,12,16.60
2021,06,07,15,13,16.60
2021,06,07,15,14,16.50
2021,06,07,15,15,16.50
2021,06,07,15,16,16.50
2021,06,07,15,17,16.40
2021,06,07,15,18,16.40
2021,06,07,15,19,16.40
2021,06,07,15,20,16.40
2021,06,07,15,21,16.40
2021,06,07,15,22,16.50
2021,06,07,15,23,16.50
2021,06,07,15,24,16.50
2021,06,07,15,25,16.60
2021,06,07,15,26,16.60
2021,06,07,15,27,16.60
2021,06,07,15,28,16.70
2021,06,07,15,29,16.70
2021,06,07,15,30,16.80
2021,06,07,15,31,16.80
2021,06,07,15,32,16.90
2021,06,07,15,33,16.90
2021,06,07,15,34,16.90
2021,06,07,15,35,16.90
2021,06,07,15,36,16.90
2021,06,07,15,37,16.90
2021,06,07,15,38,16.90
2021,06,07,15,39,17.00
2021,06,07,15,40,17.00
2021,06,07,15,41,17.10
2021,06,07,15,42,17.10
2021,06,07,15,43,17.20
2021,06,07,15,44,17.30
2021,06,07,15,45,17.30
2021,06,07,15,46,17.30
2021,06,07,15,47,17.30
2021,06,07,15,48,17.30
2021,06,07,15,49,17.40
2021,06,07,15,50,17.40
2021,06,07,15,51,17.40
2021,06,07,15,52,17.40
2021,06,07,15,53,17.30
2021,06,07,15,54,17.30
2021,06,07,15,55,17.30
2021,06,07,15,56,17.30
2021,06,07,15,57,17.30
2021,06,07,15,58,17.20
2021,06,07,15,59,17.20
2021,06,07,16,00,17.20
2021,06,07,16,01,17.20
2021,06,07,16,02,17.20
2021,06,07,16,03,17.20
2021,06,07,16,04,17.20
2021,06,07,16,05,17.10
2021,06,07,16,06,17.10
2021,06,07,16,07,17.10
2021,06,07,16,08,17.10
2021,06,07,16,09,17.10
2021,06,07,16,10,17.10
2021,06,07,16,11,17.10
2021,06,07,16,12,17.10
2021,06,07,16,13,17.20
2021,06,07,16,14,17.20
2021,06,07,16,15,17.20
2021,06,07,16,16,17.20
2021,06,07,16,17,17.30
2021,06,07,16,18,17.30
2021,06,07,16,19,17.30
2021,06,07,16,20,17.30
2021,06,07,16,21,17.30
2021,06,07,16,22,17.30
2021,06,07,16,23,17.30
2021,06,07,16,24,17.20
2021,06,07,16,25,17.20
2021,06,07,16,26,17.10
2021,06,07,16,27,17.10
2021,06,07,16,28,17.10
2021,06,07,16,29,17.10
2021,06,07,16,30,17.10
2021,06,07,16,31,17.10
2021,06,07,16,32,17.00
2021,06,07,16,33,17.00
2021,06,07,16,34,17.00
2021,06,07,16,35,16.90
2021,06,07,16,36,16.90
2021,06,07,16,37,16.90
2021,06,07,16,38,16.80
2021,06,07,16,39,16.80
2021,06,07,16,40,16.80
2021,06,07,16,41,16.80
2021,06,07,16,42,16.80
2021,06,07,16,43,16.80
2021,06,07,16,44,16.70
2021,06,07,16,45,16.70
2021,06,07,16,46,16.70
2021,06,07,16,47,16.70
2021,06,07,16,48,16.70
2021,06,07,16,49,16.70
2021,06,07,16,50,16.70
2021,06,07,16,51,16.70
2021,06,07,16,52,16.70
2021,06,07,16,53,16.70
2021,06,07,16,54,16.70
2021,06,07,16,55,16.70
2021,06,07,16,56,16.80
2021,06,07,16,57,16.80
2021,06,07,16,58,16.70
2021,06,07,16,59,16.70
2021,06,07,17,00,16.80
2021,06,07,17,01,16.80
2021,06,07,17,02,16.80
2021,06,07,17,03,16.80
2021,06,07,17,04,16.80
2021,06,07,17,05,16.80
2021,06,07,17,06,16.80
2021,06,07,17,07,16.80
2021,06,07,17,08,16.80
2021,06,07,17,09,16.80
2021,06,07,17,10,16.90
2021,06,07,17,11,16.90
2021,06,07,17,12,16.90
2021,06,07,17,13,16.90
2021,06,07,17,14,17.00
2021,06,07,17,15,17.10
2021,06,07,17,16,17.10
2021,06,07,17,17,17.00
2021,06,07,17,18,17.00
2021,06,07,17,19,17.00
2021,06,07,17,20,17.00
2021,06,07,17,21,17.00
2021,06,07,17,22,17.00
2021,06,07,17,23,17.00
2021,06,07,17,24,17.00
2021,06,07,17,25,16.90
2021,06,07,17,26,16.90
2021,06,07,17,27,16.90
2021,06,07,17,28,16.90
2021,06,07,17,29,17.00
2021,06,07,17,30,17.00
2021,06,07,17,31,17.00
2021,06,07,17,32,17.10
2021,06,07,17,33,17.10
2021,06,07,17,34,17.10
2021,06,07,17,35,17.10
2021,06,07,17,36,17.00
2021,06,07,17,37,17.00
2021,06,07,17,38,16.90
2021,06,07,17,39,16.90
2021,06,07,17,40,16.80
2021,06,07,17,41,16.80
2021,06,07,17,42,16.70